Cook, MN

3:53 PM CDT on May 24, 2017 (GMT -0500)
Cook Municipal

Weather History for KCQM - November, 2013

Change the Weather History Date:

Sunday, November 17, 2013

  Actual Average Record
Temperature  
Mean Temperature 32 °F -  
Max Temperature 39 °F 32 °F 66 °F (2001)
Min Temperature 26 °F 18 °F -5 °F (2005)
Degree Days  
Heating Degree Days 32    
Moisture  
Dew Point 33 °F    
Average Humidity 94    
Maximum Humidity 100    
Minimum Humidity 80    
Precipitation  
Precipitation 0.01 in - - ()
Sea Level Pressure  
Sea Level Pressure 29.36 in    
Wind  
Wind Speed 5 mph (WNW)    
Max Wind Speed 20 mph    
Max Gust Speed 26 mph    
Visibility 5 miles    
Events Fog , Rain , Snow    
Averages and records for this station are not official NWS values.
T = Trace of Precipitation, MM = Missing Value Source: NWS Daily Summary

Daily Weather History Graph

Daily Weather History Graph

Search for Another Location

Airport or City:

Trip Planner

Search our weather history database for the weather conditions in past years. The results will help you decide how hot, cold, wet, or windy it might be!

Date:

Astronomy

Nov. 17, 2013 Rise Set
Actual Time 7:19 AM CST 4:31 PM CST
Civil Twilight 6:45 AM CST 5:05 PM CST
Nautical Twilight 6:08 AM CST 5:42 PM CST
Astronomical Twilight 5:31 AM CST 6:19 PM CST
Moon 4:48 PM CST (11/17) 7:13 AM CST (11/17)
Length of Visible Light 10h 19m
Length of Day
9h 11m
Full, 100% of the Moon is Illuminated
Nov 17
Full
Nov 25
Last Quarter
Dec 2
New
Dec 9
First Quarter
Dec 17
Full

Hourly Weather History & Observations

Time (CST) Temp. Windchill Dew Point Humidity Pressure Visibility Wind Dir Wind Speed Gust Speed Precip Events Conditions
12:16 AM 39.2 °F - 39.2 °F 100% 29.27 in 2.5 mi Calm Calm - N/A   Overcast
12:37 AM 39.2 °F - 39.2 °F 100% 29.28 in 2.5 mi Calm Calm - N/A   Overcast
12:57 AM 39.2 °F 37.0 °F 39.2 °F 100% 29.27 in 1.8 mi ENE 3.5 mph - N/A   Overcast
1:16 AM 39.2 °F - 39.2 °F 100% 29.26 in 1.8 mi Calm Calm - N/A   Overcast
1:37 AM 39.2 °F - 39.2 °F 100% 29.26 in 1.5 mi Calm Calm - N/A   Overcast
1:57 AM 39.2 °F - 39.2 °F 100% 29.26 in 1.0 mi Calm Calm - N/A   Overcast
2:16 AM 39.2 °F 37.0 °F 37.4 °F 93% 29.25 in 1.0 mi East 3.5 mph - N/A   Overcast
2:37 AM 39.2 °F - 39.2 °F 100% 29.25 in 0.8 mi Calm Calm - N/A   Overcast
2:56 AM 39.2 °F - 37.4 °F 93% 29.24 in 0.8 mi Calm Calm - N/A   Overcast
3:16 AM 39.2 °F - 37.4 °F 93% 29.24 in 0.8 mi Calm Calm - N/A   Overcast
3:37 AM 39.2 °F - 37.4 °F 93% 29.24 in 0.8 mi Calm Calm - N/A   Light Drizzle
3:56 AM 37.4 °F - 37.4 °F 100% 29.25 in 1.0 mi Calm Calm - N/A Rain Rain
4:16 AM 37.4 °F - 37.4 °F 100% 29.25 in 1.0 mi Calm Calm - 0.01 in Rain Rain
4:37 AM 39.2 °F - 37.4 °F 93% 29.25 in 1.5 mi Calm Calm - 0.01 in Rain Rain
4:56 AM 37.4 °F - 37.4 °F 100% 29.24 in 1.8 mi Calm Calm - N/A   Drizzle
5:16 AM 37.4 °F - 37.4 °F 100% 29.23 in 2.0 mi Calm Calm - N/A Rain Light Rain
5:37 AM 37.4 °F - 37.4 °F 100% 29.24 in 3.0 mi Calm Calm - N/A   Overcast
5:56 AM 37.4 °F - 37.4 °F 100% 29.24 in 2.5 mi Calm Calm - N/A   Overcast
6:16 AM 37.4 °F - 37.4 °F 100% 29.25 in 1.8 mi Calm Calm - N/A   Overcast
6:37 AM 37.4 °F - 37.4 °F 100% 29.24 in 1.5 mi Calm Calm - N/A   Overcast
6:56 AM 37.4 °F - 37.4 °F 100% 29.24 in 1.8 mi Calm Calm - N/A   Overcast
7:17 AM 37.4 °F - 37.4 °F 100% 29.23 in 1.8 mi Calm Calm - N/A   Overcast
7:36 AM 37.4 °F - 37.4 °F 100% 29.24 in 1.2 mi Calm Calm - N/A   Overcast
7:56 AM 37.4 °F - 37.4 °F 100% 29.24 in 1.0 mi Calm Calm - N/A   Overcast
8:17 AM 37.4 °F - 37.4 °F 100% 29.25 in 0.8 mi Calm Calm - N/A   Overcast
8:36 AM 37.4 °F - 37.4 °F 100% 29.25 in 1.0 mi Calm Calm - N/A   Overcast
8:57 AM 37.4 °F - 37.4 °F 100% 29.24 in 0.5 mi Calm Calm - N/A Fog Fog
9:17 AM 39.2 °F 37.0 °F 37.4 °F 93% 29.26 in 0.2 mi SW 3.5 mph - N/A Fog Fog
9:36 AM 39.2 °F 34.2 °F 39.2 °F 100% 29.27 in 0.5 mi West 6.9 mph - N/A Fog Fog
9:57 AM 39.2 °F 33.6 °F 39.2 °F 100% 29.26 in 0.5 mi West 8.1 mph - N/A Fog Fog
10:17 AM 39.2 °F 33.0 °F 39.2 °F 100% 29.26 in 0.8 mi West 9.2 mph - N/A   Overcast
10:36 AM 39.2 °F 31.6 °F 37.4 °F 93% 29.28 in 7.0 mi West 12.7 mph - N/A   Overcast
10:57 AM 37.4 °F 29.3 °F 37.4 °F 100% 29.29 in 1.2 mi West 12.7 mph - N/A   Overcast
11:16 AM 35.6 °F 25.9 °F 35.6 °F 100% 29.29 in 1.2 mi West 16.1 mph - N/A   Overcast
11:37 AM 35.6 °F 25.9 °F 35.6 °F 100% 29.29 in 1.2 mi West 16.1 mph - N/A   Overcast
11:57 AM 33.8 °F 24.3 °F 33.8 °F 100% 29.30 in 1.8 mi West 13.8 mph 20.7 mph N/A   Overcast
12:16 PM 33.8 °F 23.9 °F 33.8 °F 100% 29.31 in 1.0 mi West 15.0 mph 18.4 mph N/A   Overcast
12:37 PM 33.8 °F 24.3 °F 33.8 °F 100% 29.32 in 1.2 mi WNW 13.8 mph 20.7 mph N/A   Overcast
12:56 PM 33.8 °F 25.3 °F 33.8 °F 100% 29.32 in 3.0 mi WNW 11.5 mph 18.4 mph N/A   Overcast
1:17 PM 33.8 °F 24.3 °F 33.8 °F 100% 29.32 in 5.0 mi WNW 13.8 mph 20.7 mph N/A   Overcast
1:36 PM 35.6 °F 28.0 °F 33.8 °F 93% 29.33 in 10.0 mi WNW 10.4 mph - N/A   Overcast
1:56 PM 35.6 °F 28.0 °F 33.8 °F 93% 29.34 in 10.0 mi WNW 10.4 mph - N/A   Overcast
2:17 PM 35.6 °F 25.9 °F 33.8 °F 93% 29.35 in 5.0 mi West 16.1 mph 19.6 mph N/A Rain Rain
2:37 PM 33.8 °F 25.3 °F 33.8 °F 100% 29.36 in 7.0 mi WNW 11.5 mph - N/A Rain Light Rain
2:56 PM 33.8 °F 24.8 °F 33.8 °F 100% 29.37 in 7.0 mi WNW 12.7 mph 17.3 mph N/A   Overcast
3:16 PM 33.8 °F 24.8 °F 32.0 °F 93% 29.38 in 10.0 mi WNW 12.7 mph - N/A   Overcast
3:37 PM 33.8 °F 24.3 °F 32.0 °F 93% 29.39 in 10.0 mi WNW 13.8 mph 20.7 mph N/A   Overcast
3:56 PM 33.8 °F 25.8 °F 30.2 °F 87% 29.40 in 4.0 mi WNW 10.4 mph 16.1 mph N/A Snow Light Snow
4:17 PM 32.0 °F 23.0 °F 30.2 °F 93% 29.41 in 7.0 mi WNW 11.5 mph - N/A Snow Light Snow
4:36 PM 32.0 °F 24.2 °F 30.2 °F 93% 29.42 in 2.0 mi WNW 9.2 mph - N/A Snow Light Snow
4:57 PM 30.2 °F 21.9 °F 28.4 °F 93% 29.43 in 4.0 mi WNW 9.2 mph 17.3 mph N/A Snow Light Snow
5:16 PM 30.2 °F 21.9 °F 28.4 °F 93% 29.45 in 3.0 mi WNW 9.2 mph 19.6 mph N/A Snow Light Snow
5:36 PM 30.2 °F 21.3 °F 28.4 °F 93% 29.46 in 7.0 mi NW 10.4 mph 20.7 mph N/A   Overcast
5:57 PM 30.2 °F 20.2 °F 26.6 °F 86% 29.48 in 10.0 mi WNW 12.7 mph 19.6 mph N/A   Overcast
6:16 PM 30.2 °F 19.8 °F 26.6 °F 86% 29.49 in 10.0 mi WNW 13.8 mph 23.0 mph N/A   Overcast
6:37 PM 30.2 °F 18.9 °F 26.6 °F 86% 29.50 in 10.0 mi WNW 16.1 mph 26.5 mph N/A   Overcast
6:56 PM 28.4 °F 17.5 °F 24.8 °F 86% 29.51 in 10.0 mi WNW 13.8 mph 19.6 mph N/A   Overcast
7:17 PM 28.4 °F 18.5 °F 24.8 °F 86% 29.52 in 10.0 mi WNW 11.5 mph 20.7 mph N/A   Overcast
7:36 PM 28.4 °F 17.0 °F 24.8 °F 86% 29.53 in 10.0 mi WNW 15.0 mph 18.4 mph N/A   Overcast
7:57 PM 28.4 °F 17.0 °F 24.8 °F 86% 29.53 in 10.0 mi West 15.0 mph 20.7 mph N/A   Overcast
8:17 PM 28.4 °F 15.4 °F 23.0 °F 80% 29.55 in 10.0 mi West 19.6 mph - N/A   Overcast
8:36 PM 26.6 °F 15.7 °F 23.0 °F 86% 29.56 in 10.0 mi West 12.7 mph 18.4 mph N/A   Overcast
8:56 PM 26.6 °F 14.3 °F 23.0 °F 86% 29.57 in 10.0 mi West 16.1 mph - N/A   Overcast
9:17 PM 26.6 °F 14.3 °F 23.0 °F 86% 29.58 in 10.0 mi West 16.1 mph 20.7 mph N/A   Overcast
9:36 PM 26.6 °F 14.7 °F 23.0 °F 86% 29.58 in 10.0 mi WNW 15.0 mph 20.7 mph N/A   Overcast
9:57 PM 26.6 °F 15.2 °F 23.0 °F 86% 29.58 in 10.0 mi WNW 13.8 mph - N/A   Overcast
10:17 PM 26.6 °F 14.3 °F 23.0 °F 86% 29.59 in 10.0 mi West 16.1 mph 23.0 mph N/A   Overcast
10:36 PM 26.6 °F 14.3 °F 23.0 °F 86% 29.60 in 10.0 mi WNW 16.1 mph 24.2 mph N/A   Overcast
10:57 PM 26.6 °F 14.3 °F 23.0 °F 86% 29.61 in 10.0 mi WNW 16.1 mph 24.2 mph N/A   Overcast
11:17 PM 26.6 °F 15.2 °F 23.0 °F 86% 29.62 in 10.0 mi West 13.8 mph 21.9 mph N/A Snow Light Snow
11:36 PM 26.6 °F 16.2 °F 21.2 °F 80% 29.63 in 10.0 mi WNW 11.5 mph 18.4 mph N/A   Overcast
11:57 PM 26.6 °F 14.7 °F 21.2 °F 80% 29.64 in 10.0 mi WNW 15.0 mph 24.2 mph N/A   Overcast